Home > Weather > Nanjing > Past weeks

Flag for China Weather for the Past 2 Weeks in Nanjing, Jiangsu, China

Now
54 °F

Fog.


Feels Like: 54 °F
Forecast: 51 / 69 °F
Wind: 1 mph from North

Location: Nanjing

Current Time: Feb 12, 2016 at 4:04:39 AM

Latest Report: Feb 12, 2016 at 3:00 AM


Visibility: 2 mi

Pressure: 29.92 "Hg

Humidity: 100%

Dew point: 54 °F

Location of NanjingLocation

Historic Weather in Nanjing — Graph

°F

Nanjing Temperature Yesterday

Maximum temperature yesterday: 66 °F (at 4:00 PM)
Minimum temperature yesterday: 52 °F (at 1:00 AM)
Average temperature yesterday: 56 °F

High & Low Weather Summary for the Past Weeks

 TemperatureHumidityPressure
High77 °F (Feb 10, 2:00 PM)100% (Jan 28, 5:00 AM)30.66 "Hg (Jan 28, 5:00 AM)
Low23 °F (Feb 2, 3:00 AM)18% (Feb 10, 2:00 PM)29.86 "Hg (Feb 11, 2:00 PM)
Average40 °F73%30.30 "Hg
* Reported Jan 28 3:00 AM — Feb 12 3:00 AM, Nanjing, Weather by CustomWeather, © 2016

Note: Actual official high and low records may vary slightly from our data, if they occured in-between our weather recording intervals... More about our weather records

Advertising

Nanjing Weather History for the Previous 24 Hours

 ConditionsComfort  
Time TempWeatherWind HumidityBarometerVisibility
3:00 AM
Fri, Feb 12
54 °FFog.1 mph100%29.92 "Hg1 mi
2:00 AM54 °FFog.1 mph94%29.92 "Hg1 mi
1:00 AM54 °FFog.1 mph94%29.92 "Hg1 mi
12:00 AM54 °FFog.1 mph100%29.92 "Hg1 mi
11:00 PM
Thu, Feb 11
54 °FFog.1 mph100%29.92 "Hg1 mi
10:00 PM52 °FFog.1 mph100%29.92 "Hg1 mi
9:00 PM52 °FFog.1 mph100%29.92 "Hg1 mi
8:00 PM55 °FFog.1 mph94%29.92 "Hg2 mi
7:00 PM57 °FFog.1 mph88%29.92 "Hg3 mi
6:00 PM61 °FClear.3 mph83%29.89 "Hg10 mi
5:00 PM66 °FSunny.1 mph68%29.86 "Hg10 mi
4:00 PM66 °FClear.3 mph68%29.86 "Hg6 mi
3:00 PM64 °FScattered clouds.3 mph73%29.86 "Hg5 mi
2:00 PM63 °FPartly sunny.3 mph83%29.86 "Hg4 mi
1:00 PM59 °FFog.3 mph94%29.89 "Hg3 mi
12:00 PM57 °FLight rain. Fog.3 mph94%29.92 "Hg2 mi
11:00 AM57 °FFog.3 mph94%29.95 "Hg2 mi
10:00 AM55 °FLight rain. Fog.3 mph94%29.95 "Hg2 mi
9:00 AM54 °FFog.3 mph100%29.95 "Hg1 mi
8:00 AM54 °FLight rain. Fog.3 mph94%29.92 "Hg1 mi
7:00 AM52 °FFog.1 mph100%29.95 "Hg1 mi
6:00 AM52 °FRain. Fog.6 mph94%29.92 "Hg2 mi
5:00 AM54 °FLight rain. Clear.1 mph88%29.92 "Hg4 mi
4:00 AM54 °FLight rain. Clear.3 mph82%29.92 "Hg5 mi
Weather by CustomWeather, © 2016

See weather overviewHow to use our weather pages